Date String (YYYY-MM-DD hh:mm:ss) UTC,Instrument flags,absolute air pressure of the measurement (hPa),sample flow rate (lpm),inlet stack bypass flow (lpm),air temperature of the measurement (°C),ambient temperature measured by the external sensor (°C),aerosol sample conditioner tube jacket temperature (°C),OPC LED temperature (°C),internal box temperature (°C),relative humidity of the measurement (%),span deviation,mass concentration of particles derived from Lorenz-Mie calculation of OPC scattering (μg/m³),mass concentration of particles derived from Lorenz-Mie calculation of OPC scattering (μg/m³),mass concentration of particles derived from Lorenz-Mie calculation of OPC scattering (μg/m³)
DateTimeUTC,F1_M11,P_M11,Q1_M11,Q2_M11,T1_M11,T2_M11,T3_M11,T4_M11,T5_M11,U1_M11,ZSPAN_M11,X0_M11,X2_M11,X1_M11
2023-09-26 06:00:00,SystemResetWarning,0836.2,5.01,000.00,028.6,024.2,000.0,037.0,030.0,12.0,0000.0,0014.59,0004.72,0003.62
2023-09-26 06:01:00,SystemResetWarning,0836.1,4.99,000.00,028.4,024.4,000.0,037.0,029.7,12.2,0000.3,0014.19,0004.73,0003.61
2023-09-26 06:02:00,SystemResetWarning,0836.1,5.00,000.00,028.3,024.8,000.0,036.9,029.6,12.2,0001.9,0013.61,0004.78,0003.60
2023-09-26 06:03:00,SystemResetWarning,0836.1,5.00,000.00,028.3,025.1,000.0,036.9,029.6,12.3,0000.0,0012.56,0004.81,0003.59
2023-09-26 06:04:00,SystemResetWarning,0836.1,4.99,000.00,028.2,025.5,000.0,036.9,029.6,12.3,0000.7,0012.05,0004.78,0003.60
2023-09-26 06:05:00,SystemResetWarning,0836.1,4.99,000.00,028.2,025.8,000.0,036.9,029.7,12.3,0002.0,0012.39,0004.80,0003.61
2023-09-26 06:06:00,SystemResetWarning,0836.1,5.00,000.00,028.2,026.0,000.0,036.8,029.7,12.3,0000.6,0011.96,0004.75,0003.62
2023-09-26 06:07:00,SystemResetWarning,0836.1,5.01,000.00,028.2,026.2,000.0,036.8,029.7,12.3,0000.0,0012.15,0004.79,0003.63
2023-09-26 06:08:00,SystemResetWarning,0836.1,5.01,000.00,028.2,026.4,000.0,036.8,029.8,12.3,0000.0,0011.79,0004.78,0003.64
2023-09-26 06:09:00,SystemResetWarning,0836.1,5.00,000.00,028.2,026.5,000.0,036.8,029.8,12.2,0000.0,0011.86,0004.73,0003.64
2023-09-26 06:10:00,SystemResetWarning,0836.1,4.99,000.00,028.2,026.6,000.0,036.8,029.8,12.1,0000.0,0012.57,0004.74,0003.65
2023-09-26 06:11:00,SystemResetWarning,0836.1,5.00,000.00,028.2,026.7,000.0,036.7,029.8,12.1,0000.0,0012.24,0004.73,0003.65
2023-09-26 06:12:00,SystemResetWarning,0836.1,5.00,000.00,028.2,026.7,000.0,036.7,029.8,12.0,0000.0,0011.98,0004.66,0003.65
2023-09-26 06:13:00,SystemResetWarning,0836.1,5.00,000.00,028.2,026.8,000.0,036.7,029.8,12.0,0000.0,0012.40,0004.61,0003.65
2023-09-26 06:14:00,SystemResetWarning,0836.1,5.00,000.00,028.2,026.8,000.0,036.7,029.8,12.0,0000.0,0013.16,0004.57,0003.64
2023-09-26 06:15:00,SystemResetWarning,0836.1,5.00,000.00,028.3,026.9,000.0,036.7,029.9,12.0,0000.0,0014.46,0004.55,0003.63
2023-09-26 06:16:00,SystemResetWarning,0836.1,5.01,000.00,028.3,026.9,000.0,036.7,029.9,12.0,0000.0,0014.46,0004.51,0003.62
2023-09-26 06:17:00,SystemResetWarning,0836.0,5.00,000.00,028.3,026.9,000.0,036.7,029.9,12.1,0000.0,0014.40,0004.51,0003.63
2023-09-26 06:18:00,SystemResetWarning,0836.0,5.00,000.00,028.3,027.0,000.0,036.7,029.9,11.8,0000.3,0014.06,0004.53,0003.63
2023-09-26 06:19:00,SystemResetWarning,0836.1,5.01,000.00,028.3,027.0,000.0,036.7,029.9,11.8,0001.4,0013.75,0004.47,0003.62
2023-09-26 06:20:00,SystemResetWarning,0836.0,5.00,000.00,028.3,027.0,000.0,036.7,029.9,11.8,0000.0,0014.60,0004.50,0003.61
2023-09-26 06:21:00,SystemResetWarning,0836.0,5.00,000.00,028.3,027.0,000.0,036.8,029.9,11.6,0000.7,0014.89,0004.51,0003.60
2023-09-26 06:22:00,SystemResetWarning,0836.0,4.99,000.00,028.4,027.0,000.0,036.8,030.0,11.6,0002.2,0014.89,0004.48,0003.60
2023-09-26 06:23:00,SystemResetWarning,0836.1,4.99,000.00,028.4,027.0,000.0,036.8,030.0,11.8,0002.0,0014.92,0004.48,0003.61
2023-09-26 06:24:00,SystemResetWarning,0836.1,5.01,000.00,028.4,027.1,000.0,036.8,030.0,11.8,0001.4,0015.02,0004.48,0003.62
2023-09-26 06:25:00,SystemResetWarning,0836.1,5.01,000.00,028.4,027.1,000.0,036.8,030.0,11.7,0001.1,0015.35,0004.47,0003.62
2023-09-26 06:26:00,SystemResetWarning,0836.1,5.00,000.00,028.4,027.1,000.0,036.8,030.0,11.7,0002.0,0014.52,0004.49,0003.62
2023-09-26 06:27:00,SystemResetWarning,0836.1,5.00,000.00,028.4,027.1,000.0,036.8,030.0,11.7,0002.4,0014.33,0004.52,0003.64
2023-09-26 06:28:00,SystemResetWarning,0836.1,5.00,000.00,028.4,027.1,000.0,036.8,030.0,11.7,0002.6,0015.13,0004.51,0003.64
2023-09-26 06:29:00,SystemResetWarning,0836.1,4.99,000.00,028.4,027.1,000.0,036.8,030.0,11.7,0002.9,0014.99,0004.46,0003.63
2023-09-26 06:30:00,SystemResetWarning,0836.1,5.00,000.00,028.5,027.1,000.0,036.8,030.1,11.7,0001.5,0015.63,0004.44,0003.64
2023-09-26 06:31:00,SystemResetWarning,0836.1,4.99,000.00,028.5,027.1,000.0,036.8,030.1,11.7,0003.5,0014.96,0004.44,0003.65
2023-09-26 06:32:00,SystemResetWarning,0836.1,5.00,000.00,028.5,027.2,000.0,036.8,030.1,11.7,0001.4,0013.98,0004.39,0003.65
2023-09-26 06:33:00,SystemResetWarning,0836.0,5.00,000.00,028.5,027.2,000.0,036.9,030.1,11.6,0000.0,0014.29,0004.41,0003.65
2023-09-26 06:34:00,SystemResetWarning,0836.0,5.00,000.00,028.5,027.2,000.0,036.9,030.1,11.5,0000.0,0014.42,0004.45,0003.65
2023-09-26 06:35:00,SystemResetWarning,0836.0,5.00,000.00,028.5,027.2,000.0,036.9,030.1,11.4,0000.0,0014.11,0004.48,0003.63
2023-09-26 06:36:00,SystemResetWarning,0835.9,5.00,000.00,028.5,027.2,000.0,036.9,030.1,11.5,0000.0,0013.39,0004.52,0003.63
2023-09-26 06:37:00,SystemResetWarning,0836.0,5.00,000.00,028.5,027.2,000.0,036.9,030.1,11.5,0000.0,0012.82,0004.51,0003.62
2023-09-26 06:38:00,SystemResetWarning,0835.9,5.00,000.00,028.5,027.2,000.0,036.9,030.1,11.3,0000.0,0012.74,0004.52,0003.63
2023-09-26 06:39:00,SystemResetWarning,0835.9,5.00,000.00,028.5,027.2,000.0,036.9,030.1,11.3,0000.0,0011.99,0004.50,0003.62
2023-09-26 06:40:00,SystemResetWarning,0835.9,5.00,000.00,028.5,027.2,000.0,036.9,030.1,11.4,0000.0,0014.05,0004.51,0003.63
2023-09-26 06:41:00,SystemResetWarning,0835.9,5.01,000.00,028.5,027.2,000.0,036.9,030.1,11.4,0000.0,0014.47,0004.52,0003.63
2023-09-26 06:42:00,SystemResetWarning,0835.9,5.01,000.00,028.6,027.2,000.0,036.9,030.1,11.4,0000.0,0014.58,0004.50,0003.63
2023-09-26 06:43:00,SystemResetWarning,0835.9,5.00,000.00,028.6,027.2,000.0,036.9,030.2,11.4,0000.0,0014.49,0004.52,0003.63
2023-09-26 06:44:00,SystemResetWarning,0835.9,4.99,000.00,028.6,027.2,000.0,036.9,030.2,11.2,0000.0,0013.84,0004.52,0003.63
2023-09-26 06:45:00,SystemResetWarning,0835.9,4.99,000.00,028.6,027.2,000.0,036.9,030.2,11.2,0000.0,0013.74,0004.48,0003.64
2023-09-26 06:46:00,SystemResetWarning,0835.9,5.00,000.00,028.6,027.2,000.0,036.9,030.2,11.1,0000.0,0013.96,0004.46,0003.66
2023-09-26 06:47:00,SystemResetWarning,0835.9,5.02,000.00,028.6,027.3,000.0,037.0,030.2,11.1,0000.0,0013.85,0004.47,0003.66
2023-09-26 06:48:00,SystemResetWarning,0835.9,5.00,000.00,028.6,027.3,000.0,037.0,030.2,11.1,0000.0,0013.58,0004.47,0003.66
2023-09-26 06:49:00,SystemResetWarning,0835.9,4.99,000.00,028.6,027.3,000.0,037.0,030.2,11.2,0000.0,0013.35,0004.46,0003.66
2023-09-26 06:50:00,SystemResetWarning,0835.9,5.00,000.00,028.6,027.3,000.0,037.0,030.2,11.2,0000.0,0013.93,0004.47,0003.66
2023-09-26 06:51:00,SystemResetWarning,0835.9,5.01,000.00,028.6,027.3,000.0,037.0,030.2,11.2,0000.0,0012.58,0004.45,0003.65
2023-09-26 06:52:00,SystemResetWarning,0835.9,5.01,000.00,028.6,027.3,000.0,037.0,030.2,11.2,0000.0,0011.27,0004.49,0003.66
2023-09-26 06:53:00,SystemResetWarning,0835.9,5.00,000.00,028.6,027.3,000.0,037.0,030.2,11.4,0000.0,0011.31,0004.56,0003.67
2023-09-26 06:54:00,SystemResetWarning,0835.9,5.01,000.00,028.6,027.4,000.0,037.0,030.3,11.5,0000.0,0011.35,0004.59,0003.67
2023-09-26 06:55:00,SystemResetWarning,0835.9,5.00,000.00,028.7,027.4,000.0,037.0,030.3,11.3,0000.0,0011.41,0004.63,0003.67
2023-09-26 06:56:00,SystemResetWarning,0835.9,4.99,000.00,028.7,027.4,000.0,037.0,030.3,11.5,0000.0,0011.36,0004.65,0003.66
2023-09-26 06:57:00,SystemResetWarning,0835.9,4.99,000.00,028.7,027.4,000.0,037.0,030.3,11.6,0000.0,0011.76,0004.64,0003.66
2023-09-26 06:58:00,SystemResetWarning,0835.9,4.99,000.00,028.7,027.4,000.0,037.1,030.3,11.6,0000.0,0011.66,0004.62,0003.65
2023-09-26 06:59:00,SystemResetWarning,0835.9,5.01,000.00,028.7,027.4,000.0,037.1,030.3,11.5,0000.0,0011.31,0004.55,0003.64
